This demonstration page uses our WeatherBlox Daily Observations layout. Learn more.

Left ArrowRight Arrow

38.20091, -84.87328

Hourly Observations for February 9, 2018

Temp ( °F °C ) Dew Point ( °F °C ) Humidity (%) Winds ( mph kmh ) Pressure ( in mb ) Visibility ( mi km ) Precip ( " mm )
12:53 am 00:53 Clear 26 -3.3 21 -6.1 81 81 Calm 30.38 1029 10 16 0.00 0.00
1:53 am 01:53 Clear 26 -3.3 22 -5.6 84 84 Calm 30.36 1028 9 14 0.00 0.00
2:53 am 02:53 Clear 27 -2.8 21 -6.1 78 78 ENE 3 6 30.35 1028 9 14 0.00 0.00
3:53 am 03:53 Clear 28 -2.2 22 -5.6 78 78 Calm 30.32 1027 10 16 0.00 0.00
4:53 am 04:53 Clear 28 -2.2 20 -6.7 72 72 SE 5 7 30.31 1026 10 16 0.00 0.00
5:53 am 05:53 Clear 28 -2.2 20 -6.7 72 72 SSE 5 7 30.31 1026 10 16 0.00 0.00
6:53 am 06:53 Clear 26 -3.3 20 -6.7 78 78 SSE 3 6 30.32 1027 10 16 0.00 0.00
7:53 am 07:53 Sunny 30 -1.1 22 -5.6 72 72 Calm 30.32 1027 10 16 0.00 0.00
8:53 am 08:53 Sunny 32 0 23 -5 69 69 SSE 7 11 30.32 1027 10 16 0.00 0.00
9:53 am 09:53 Sunny 37 2.8 26 -3.3 65 65 SE 3 6 30.31 1026 10 16 0.00 0.00
10:53 am 10:53 Sunny 43 6.1 28 -2.2 56 56 S 7 11 30.28 1026 10 16 0.00 0.00
11:53 am 11:53 Sunny 50 10 29 -1.7 44 44 S 9 15 30.25 1024 10 16 0.00 0.00
12:53 pm 12:53 Sunny 54 12.2 28 -2.2 37 37 SSW 18 30 30.21 1023 10 16 0.00 0.00
1:53 pm 13:53 Sunny 55 12.8 28 -2.2 35 35 SW 17 28 30.17 1022 10 16 0.00 0.00
2:53 pm 14:53 Sunny 58 14.4 30 -1.1 35 35 SSW 10 17 30.14 1021 10 16 0.00 0.00
3:53 pm 15:53 Sunny 59 15 29 -1.7 32 32 SSW 10 17 30.11 1020 10 16 0.00 0.00
4:53 pm 16:53 Sunny 58 14.4 28 -2.2 32 32 SW 8 13 30.11 1020 10 16 0.00 0.00
5:53 pm 17:53 Sunny 52 11.1 27 -2.8 38 38 SSW 5 7 30.10 1019 10 16 0.00 0.00
6:53 pm 18:53 Clear 45 7.2 28 -2.2 52 52 Calm 30.11 1020 10 16 0.00 0.00
7:53 pm 19:53 Clear 45 7.2 28 -2.2 52 52 SW 3 6 30.12 1020 10 16 0.00 0.00
8:53 pm 20:53 Cloudy 44 6.7 28 -2.2 53 53 Calm 30.12 1020 10 16 0.00 0.00
9:53 pm 21:53 Cloudy 45 7.2 30 -1.1 56 56 Calm 30.11 1020 10 16 0.00 0.00
10:53 pm 22:53 Cloudy 46 7.8 31 -0.6 56 56 Calm 30.10 1019 10 16 0.00 0.00
11:53 pm 23:53 Cloudy 46 7.8 30 -1.1 54 54 Calm 30.09 1019 10 16 0.00 0.00

Powered by AerisWeather